"Pseudo-MPEC" for P10IjS2

Created 2018 Jul 17 19:18:06 UT using Find_Orb

Click here for an explanation of pseudo-MPECs

 
 Astrometry: 
     P10IjS2  C2018 07 10A;Astrometryqd8'Xx[Ni[Ne;Wbfa6'D_rLAb\8sX-EByLTQ-(@BF51
     P10IjS2  C2018 07 10W`7h$O8+0]D(cfjyXredacted;=W?brhseeTJO7DqH*c6-gfELP\F51
     P10IjS2  C2018 07 10q2E7VEIsVB6V:$ed./YJmB`/\V\-h\xD[Gr7C.n]fYt[eT_NEOCPF51

Station data:
(F51) Pan-STARRS 1, Haleakala  (N20.707235 W156.255910)  US/Hawaii.
   Observers N. Primak, A. Schultz, S. Watters, J. Thiel, T. Goggia. Measurer
   PS1 Science Consortium. 1.8-m Ritchey-Chrétien + CCD.

Orbital elements:  P10IjS2
   Perihelion 2018 Sep 10.944699 +/- 52.2 TT = 22:40:22 (JD 2458372.444699)
Epoch 2018 Jul 10.0 TT = JDT 2458309.5   Earth MOID: 0.3771   Ma: 0.0223
M 341.46848 +/- 21                  (J2000 ecliptic)          AutoNEOCP
n   0.29440946 +/- 0.264            Peri.  304.36729 +/- 100
a   2.23787008 +/- 1.34             Node    30.72089 +/- 51
e   0.3824888 +/- 0.246             Incl.    3.70292 +/- 2.3
P   3.35                   H 21.9   G  0.15   U 11.8  SR
q 1.38190983 +/- 0.527    Q 3.09383033 +/- 99.9
From 3 observations 2018 July 10 (32.6 min); mean residual 0".13
Residuals in arcseconds: 
180710 F51  .04+  .12+    180710 F51  .07-  .25-    180710 F51  .04+  .12+    

Ephemerides (geocentric):
Date (UTC) HH   RA              Dec         delta   r     elong  mag " sig PA
---- -- -- --  -------------   -----------  ------ ------ -----  --- ---- ---
2018 07 17 19  20 32 34.941   -31 04 06.39  .46034 1.4670 165.8 21.7  37d 172
2018 07 17 20  20 32 34.649   -31 04 19.27  .46019 1.4669 165.8 21.7  37d 172
2018 07 17 21  20 32 34.354   -31 04 32.14  .46004 1.4668 165.9 21.7  37d 172
2018 07 17 22  20 32 34.058   -31 04 44.99  .45990 1.4666 165.9 21.7  37d 172
2018 07 17 23  20 32 33.759   -31 04 57.82  .45975 1.4665 165.9 21.7  37d 172
2018 07 18 00  20 32 33.458   -31 05 10.64  .45960 1.4664 165.9 21.7  37d 172
2018 07 18 01  20 32 33.154   -31 05 23.44  .45946 1.4663 165.9 21.7  37d 172
2018 07 18 02  20 32 32.849   -31 05 36.22  .45931 1.4661 166.0 21.7  37d 172
2018 07 18 03  20 32 32.541   -31 05 48.98  .45916 1.4660 166.0 21.7  37d 172
2018 07 18 04  20 32 32.231   -31 06 01.73  .45902 1.4659 166.0 21.7  37d 172
2018 07 18 05  20 32 31.919   -31 06 14.46  .45887 1.4658 166.0 21.7  37d 172
2018 07 18 06  20 32 31.604   -31 06 27.18  .45873 1.4657 166.0 21.7  37d 172
2018 07 18 07  20 32 31.288   -31 06 39.88  .45858 1.4655 166.1 21.7  37d 172
2018 07 18 08  20 32 30.969   -31 06 52.56  .45843 1.4654 166.1 21.7  37d 172
2018 07 18 09  20 32 30.648   -31 07 05.22  .45829 1.4653 166.1 21.7  37d 172
2018 07 18 10  20 32 30.325   -31 07 17.87  .45815 1.4652 166.1 21.7  37d 172
2018 07 18 11  20 32 30.000   -31 07 30.50  .45800 1.4651 166.1 21.7  37d 172
2018 07 18 12  20 32 29.673   -31 07 43.11  .45786 1.4649 166.1 21.7  37d 172
2018 07 18 13  20 32 29.344   -31 07 55.70  .45771 1.4648 166.2 21.7  37d 172
2018 07 18 14  20 32 29.012   -31 08 08.28  .45757 1.4647 166.2 21.7  38d 172
2018 07 18 15  20 32 28.679   -31 08 20.84  .45743 1.4646 166.2 21.7  38d 173
2018 07 18 16  20 32 28.343   -31 08 33.38  .45728 1.4645 166.2 21.7  38d 173
2018 07 18 17  20 32 28.005   -31 08 45.91  .45714 1.4643 166.2 21.7  39d 172
2018 07 18 18  20 32 27.665   -31 08 58.41  .45700 1.4642 166.3 21.7  39d 172
2018 07 18 19  20 32 27.323   -31 09 10.90  .45685 1.4641 166.3 21.7  39d 171
2018 07 18 20  20 32 26.979   -31 09 23.37  .45671 1.4640 166.3 21.7  40d 171
2018 07 18 21  20 32 26.633   -31 09 35.82  .45657 1.4639 166.3 21.7  40d 171
2018 07 18 22  20 32 26.285   -31 09 48.26  .45643 1.4637 166.3 21.7  40d 171
2018 07 18 23  20 32 25.934   -31 10 00.68  .45629 1.4636 166.3 21.7  40d 170
2018 07 19 00  20 32 25.582   -31 10 13.08  .45615 1.4635 166.4 21.7  40d 170
2018 07 19 01  20 32 25.227   -31 10 25.46  .45601 1.4634 166.4 21.7  40d 170
2018 07 19 02  20 32 24.871   -31 10 37.82  .45586 1.4633 166.4 21.7  40d 170
2018 07 19 03  20 32 24.513   -31 10 50.16  .45572 1.4631 166.4 21.7  40d 170
2018 07 19 04  20 32 24.152   -31 11 02.49  .45558 1.4630 166.4 21.7  40d 170
2018 07 19 05  20 32 23.789   -31 11 14.80  .45544 1.4629 166.4 21.7  40d 170
2018 07 19 06  20 32 23.425   -31 11 27.09  .45530 1.4628 166.5 21.6  40d 170
2018 07 19 07  20 32 23.058   -31 11 39.36  .45517 1.4627 166.5 21.6  40d 170
2018 07 19 08  20 32 22.690   -31 11 51.61  .45503 1.4626 166.5 21.6  40d 170
2018 07 19 09  20 32 22.319   -31 12 03.84  .45489 1.4624 166.5 21.6  40d 170
2018 07 19 10  20 32 21.947   -31 12 16.05  .45475 1.4623 166.5 21.6  40d 170
2018 07 19 11  20 32 21.572   -31 12 28.25  .45461 1.4622 166.5 21.6  40d 170
2018 07 19 12  20 32 21.195   -31 12 40.43  .45447 1.4621 166.6 21.6  40d 170
2018 07 19 13  20 32 20.817   -31 12 52.59  .45433 1.4620 166.6 21.6  40d 170
2018 07 19 14  20 32 20.437   -31 13 04.72  .45420 1.4618 166.6 21.6  40d 170
2018 07 19 15  20 32 20.054   -31 13 16.84  .45406 1.4617 166.6 21.6  40d 170
2018 07 19 16  20 32 19.670   -31 13 28.94  .45392 1.4616 166.6 21.6  40d 170
2018 07 19 17  20 32 19.283   -31 13 41.03  .45378 1.4615 166.6 21.6  40d 170
2018 07 19 18  20 32 18.895   -31 13 53.09  .45365 1.4614 166.7 21.6  40d 170